Flag for Greece Weather past 2 weeks in Kallithea, Greece

Now
68 °F

Partly sunny.


Feels Like: 68 °F
Forecast: 54 / 75 °F
Wind: 5 mph from Southeast

Location: Elefsis Airport


UV Index: 5 (Moderate)

Visibility: N/A


Pressure: 29.89 "Hg

Humidity: 46%

Dew point: 46 °F

Location of KallitheaLocation

Historic Weather in Kallithea

°F

Kallithea temperature yesterday

Maximum temperature yesterday: 70 °F (at 2:20 PM)
Minimum temperature yesterday: 46 °F (at 4:50 AM)
Average temperature yesterday: 59 °F

Past Weeks' High & Low Weather Summary

 TemperatureHumidityPressure
High75 °F (Apr 9, 2:20 PM)100% (Apr 17, 11:50 PM)30.09 "Hg (Apr 17, 11:50 PM)
Low43 °F (Apr 19, 4:50 AM)21% (Apr 11, 12:50 PM)29.65 "Hg (Apr 18, 3:20 AM)
Average58 °F67%29.90 "Hg
* Reported Apr 6 5:20 PM — Apr 21 5:50 PM, Kallithea, Weather by CustomWeather, © 2014

Note: Actual official high and low records may vary slightly from our data, if they occured in-between our weather recording intervals... More about our weather records

Advertising

Historic Weather Conditions — Data for Previous 24 hours

 ConditionsComfort  
Time TempWeatherWind HumidityBarometerVisibility
5:50 PM
Apr 21
68 °FPartly sunny.5 mph46%29.89 "HgN/A
5:20 PM68 °FBroken clouds.6 mph46%29.89 "HgN/A
4:50 PM68 °FPartly sunny.9 mph53%29.92 "HgN/A
4:20 PM68 °FPartly sunny.12 mph56%29.92 "HgN/A
3:50 PM66 °FPartly sunny.12 mph64%29.92 "HgN/A
3:20 PM70 °FPartly sunny.7 mph53%29.95 "HgN/A
2:50 PM68 °FPartly sunny.7 mph69%29.95 "HgN/A
2:20 PM66 °FPartly sunny.No wind68%29.95 "HgN/A
1:50 PM66 °FPartly sunny.No wind60%29.95 "HgN/A
1:20 PM66 °FPartly sunny.No wind64%29.98 "HgN/A
12:50 PM64 °FPartly sunny.No wind68%29.98 "HgN/A
12:20 PM64 °FPartly sunny.No wind73%30.01 "HgN/A
11:50 AM63 °FLight rain. Broken clouds.No wind83%30.01 "HgN/A
11:20 AM61 °FLight rain. Broken clouds.No wind88%29.98 "HgN/A
10:50 AM61 °FLight rain. Broken clouds.No wind88%29.98 "HgN/A
10:20 AM61 °FLight rain. Broken clouds.No wind88%29.98 "HgN/A
9:50 AM63 °FLight rain. Broken clouds.No wind77%29.95 "HgN/A
8:50 AM61 °FPartly sunny.No wind83%29.98 "HgN/A
8:20 AM59 °FPartly sunny.No wind82%29.98 "HgN/A
7:50 AM57 °FBroken clouds.No wind82%29.98 "HgN/A
7:20 AM55 °FLight rain. Partly cloudy.No wind88%29.95 "HgN/A
6:50 AM57 °FPartly cloudy.No wind77%29.95 "HgN/A
6:20 AM57 °FPassing clouds.5 mph77%29.95 "HgN/A
5:50 AM57 °FPassing clouds.No wind77%29.95 "HgN/A
5:20 AM55 °FPassing clouds.3 mph77%29.95 "HgN/A
4:50 AM55 °FPassing clouds.3 mph77%29.95 "HgN/A
4:20 AM55 °FPassing clouds.5 mph77%29.95 "HgN/A
2:50 AM57 °FPassing clouds.No wind77%29.95 "HgN/A
2:20 AM57 °FPassing clouds.No wind72%29.95 "HgN/A
1:50 AM57 °FPassing clouds.5 mph72%29.95 "HgN/A
1:20 AM57 °FPassing clouds.3 mph72%29.95 "HgN/A
12:50 AM57 °FPassing clouds.5 mph77%29.95 "HgN/A
11:50 PM
Apr 20
55 °FPassing clouds.3 mph82%29.95 "HgN/A
11:20 PM55 °FPassing clouds.5 mph82%29.95 "HgN/A
10:50 PM57 °FPassing clouds.3 mph77%29.95 "HgN/A
10:20 PM57 °FPassing clouds.3 mph82%29.95 "HgN/A
9:50 PM57 °FPassing clouds.3 mph82%29.95 "HgN/A
9:20 PM61 °FPassing clouds.3 mph77%29.95 "HgN/A
8:50 PM61 °FPassing clouds.3 mph72%29.92 "HgN/A
8:20 PM63 °FPassing clouds.5 mph68%29.92 "HgN/A
7:50 PM63 °FScattered clouds.6 mph68%29.92 "HgN/A
7:20 PM66 °FScattered clouds.6 mph52%29.92 "HgN/A
6:50 PM68 °FScattered clouds.8 mph46%29.92 "HgN/A
6:20 PM70 °FScattered clouds.7 mph40%29.92 "HgN/A
Weather by CustomWeather, © 2014

See weather overview